period_start,C,m1,H,J0,J1,J2,J3,J4,J5,JA,JB,JC,JD,JJ,JK,JN,#
2013-07-17 00:00:47,0.01,0.17,0.00,29.37,31.52,33.54,5.89,32.67,1016.11,2040.00,3374.73,3287.00,3568.06,349.89,316.89,22.73,0000 0000 0000 0000 000000
2013-07-17 00:01:48,0.00,0.17,0.00,29.35,31.52,33.58,5.85,32.50,1016.11,2040.00,3374.76,3287.00,3568.03,349.25,316.33,22.73,0000 0000 0000 0000 000000
2013-07-17 00:02:48,0.00,0.17,0.00,29.35,31.52,33.53,5.88,32.96,1016.13,2040.00,3374.77,3287.00,3568.02,350.15,317.60,22.74,0000 0000 0000 0000 000000
2013-07-17 00:03:48,0.00,0.17,0.00,29.38,31.53,33.48,5.83,32.50,1016.13,2040.00,3374.74,3287.00,3568.00,350.06,316.91,22.74,0000 0000 0000 0000 000000
2013-07-17 00:04:48,0.01,0.17,0.00,29.39,31.53,33.43,5.78,32.63,1016.13,2040.00,3374.76,3287.00,3568.00,349.39,316.42,22.75,0000 0000 0000 0000 000000
2013-07-17 00:05:49,0.00,0.17,0.00,29.40,31.54,33.42,5.87,32.67,1016.13,2040.00,3374.74,3287.00,3568.00,350.16,317.23,22.76,0000 0000 0000 0000 000000
2013-07-17 00:06:49,0.00,0.17,0.00,29.45,31.54,33.33,5.88,32.88,1016.13,2040.00,3374.61,3287.00,3568.00,350.18,317.33,22.76,0000 0000 0000 0000 000000
2013-07-17 00:07:49,0.02,0.17,0.00,29.46,31.54,33.38,5.69,32.79,1016.09,2040.00,3374.56,3286.99,3568.00,350.08,316.51,22.77,0000 0000 0000 0000 000000
2013-07-17 00:08:49,0.01,0.17,0.00,29.46,31.55,33.40,5.83,32.71,1016.08,2040.00,3374.52,3286.99,3568.00,350.15,316.51,22.77,0000 0000 0000 0000 000000
2013-07-17 00:09:49,0.01,0.17,0.00,29.44,31.55,33.39,5.89,32.75,1016.07,2040.00,3374.35,3286.98,3568.00,350.09,316.98,22.78,0000 0000 0000 0000 000000
2013-07-17 00:10:50,0.02,0.17,0.00,29.45,31.55,33.47,5.92,32.96,1016.11,2040.00,3374.29,3286.97,3568.00,350.51,317.37,22.78,0000 0000 0000 0000 000000
2013-07-17 00:11:50,0.00,0.17,0.00,29.52,31.55,33.45,5.57,32.04,1016.12,2040.00,3374.16,3286.95,3568.00,349.74,316.60,22.79,0000 0000 0000 0000 000000
2013-07-17 00:12:50,0.02,0.17,0.00,29.48,31.55,33.47,5.73,32.33,1016.12,2040.00,3374.08,3286.94,3568.00,349.98,316.70,22.80,0000 0000 0000 0000 000000
2013-07-17 00:13:50,0.01,0.17,0.00,29.47,31.55,33.41,5.95,32.63,1016.13,2040.00,3374.03,3286.92,3568.00,350.13,317.26,22.80,0000 0000 0000 0000 000000
2013-07-17 00:14:51,0.00,0.17,0.00,29.50,31.55,33.27,5.70,32.38,1016.13,2040.00,3374.02,3286.90,3568.00,349.30,316.30,22.81,0000 0000 0000 0000 000000
2013-07-17 00:15:51,0.01,0.17,0.00,29.52,31.55,33.26,5.94,32.79,1016.13,2040.00,3374.01,3286.74,3567.97,349.15,316.07,22.81,0000 0000 0000 0000 000000
2013-07-17 00:16:51,0.03,0.17,0.00,29.49,31.55,33.32,5.67,32.54,1016.13,2040.00,3374.00,3286.69,3567.99,349.59,316.45,22.82,0000 0000 0000 0000 000000
2013-07-17 00:17:51,0.01,0.17,0.00,29.44,31.55,33.18,5.70,32.58,1016.13,2040.00,3374.00,3286.50,3567.97,349.75,316.04,22.83,0000 0000 0000 0000 000000
2013-07-17 00:18:52,0.04,0.17,0.00,29.45,31.55,33.20,5.74,32.54,1016.13,2040.00,3374.00,3286.36,3567.92,349.86,316.64,22.83,0000 0000 0000 0000 000000
2013-07-17 00:19:52,0.03,0.17,0.00,29.47,31.55,33.32,5.78,32.75,1016.13,2040.00,3374.00,3286.31,3567.95,350.32,316.82,22.84,0000 0000 0000 0000 000000
2013-07-17 00:20:52,0.00,0.17,0.00,29.45,31.56,33.18,5.74,32.42,1016.13,2040.00,3374.00,3286.32,3567.96,349.88,317.21,22.84,0000 0000 0000 0000 000000
2013-07-17 00:21:52,0.00,0.17,0.00,29.47,31.56,33.20,5.79,32.33,1016.13,2040.00,3374.00,3286.34,3567.95,350.89,317.56,22.85,0000 0000 0000 0000 000000
2013-07-17 00:22:52,0.00,0.17,0.00,29.48,31.57,33.32,5.73,32.13,1016.12,2040.00,3373.99,3286.25,3567.83,349.81,316.70,22.85,0000 0000 0000 0000 000000
2013-07-17 00:23:53,0.03,0.17,0.00,29.47,31.57,33.19,5.78,32.33,1016.13,2039.99,3373.99,3286.10,3567.56,349.75,316.67,22.86,0000 0000 0000 0000 000000
2013-07-17 00:24:53,0.05,0.17,0.00,29.51,31.57,33.31,5.70,32.33,1016.13,2039.99,3373.97,3286.07,3567.57,348.79,315.76,22.87,0000 0000 0000 0000 000000
2013-07-17 00:25:53,0.00,0.17,0.00,29.56,31.57,33.38,5.77,32.50,1016.13,2039.99,3373.92,3286.05,3567.64,350.06,316.85,22.87,0000 0000 0000 0000 000000
2013-07-17 00:26:53,0.00,0.17,0.00,29.58,31.57,33.36,5.89,32.46,1016.11,2039.98,3373.92,3286.05,3567.53,350.27,316.74,22.88,0000 0000 0000 0000 000000
2013-07-17 00:27:54,0.01,0.17,0.00,29.56,31.57,33.26,5.74,32.58,1016.12,2039.99,3373.82,3286.02,3567.35,349.23,316.16,22.88,0000 0000 0000 0000 000000
2013-07-17 00:28:54,0.04,0.17,0.00,29.52,31.57,33.29,5.81,32.54,1016.13,2039.99,3373.70,3286.01,3567.27,350.54,316.67,22.89,0000 0000 0000 0000 000000
2013-07-17 00:29:54,0.02,0.17,0.00,29.55,31.57,33.35,5.98,32.92,1016.13,2039.99,3373.73,3286.02,3567.33,350.93,317.37,22.90,0000 0000 0000 0000 000000
2013-07-17 00:30:54,-0.00,0.17,0.00,29.57,31.57,33.31,5.93,32.71,1016.13,2039.99,3373.76,3286.03,3567.35,350.70,317.50,22.90,0000 0000 0000 0000 000000
2013-07-17 00:31:54,-0.01,0.17,0.00,29.60,31.57,33.33,5.92,32.46,1016.13,2039.99,3373.51,3286.02,3567.23,350.97,317.35,22.91,0000 0000 0000 0000 000000
2013-07-17 00:32:55,0.05,0.17,0.00,29.58,31.58,33.21,5.62,32.29,1016.13,2039.99,3373.41,3286.00,3567.19,349.35,316.19,22.91,0000 0000 0000 0000 000000
2013-07-17 00:33:55,0.01,0.17,0.00,29.63,31.58,33.32,5.64,32.17,1016.13,2039.99,3373.25,3286.00,3567.11,349.87,316.61,22.92,0000 0000 0000 0000 000000
2013-07-17 00:34:55,0.02,0.17,0.00,29.65,31.59,33.34,5.76,32.50,1016.13,2039.99,3373.21,3286.02,3567.11,349.62,316.36,22.93,0000 0000 0000 0000 000000
2013-07-17 00:35:55,0.00,0.17,0.00,29.66,31.60,33.41,5.78,32.42,1016.13,2039.99,3373.17,3286.01,3567.08,349.65,316.46,22.93,0000 0000 0000 0000 000000
2013-07-17 00:36:55,0.01,0.17,0.00,29.60,31.60,33.37,5.78,32.79,1016.13,2039.99,3373.11,3286.00,3567.05,349.50,316.13,22.94,0000 0000 0000 0000 000000
2013-07-17 00:37:56,0.00,0.17,0.00,29.60,31.60,33.27,5.77,32.71,1016.13,2039.99,3373.07,3286.00,3567.02,349.52,316.05,22.94,0000 0000 0000 0000 000000
2013-07-17 00:38:56,0.01,0.17,0.00,29.56,31.60,33.16,5.91,32.83,1016.11,2039.99,3373.05,3286.00,3567.01,350.45,317.12,22.95,0000 0000 0000 0000 000000
2013-07-17 00:39:56,0.00,0.17,0.00,29.57,31.60,33.12,5.88,32.38,1016.10,2039.99,3373.03,3286.00,3567.00,350.77,316.79,22.95,0000 0000 0000 0000 000000
2013-07-17 00:40:56,0.00,0.17,0.00,29.56,31.60,33.12,5.85,32.63,1016.09,2039.99,3373.00,3285.99,3567.00,349.81,316.61,22.96,0000 0000 0000 0000 000000
2013-07-17 00:41:56,0.00,0.17,0.00,29.54,31.60,33.30,5.96,33.25,1016.11,2039.99,3373.00,3285.99,3567.00,350.98,317.70,22.97,0000 0000 0000 0000 000000
2013-07-17 00:42:57,0.00,0.17,0.00,29.54,31.60,33.31,5.72,32.75,1016.11,2039.99,3373.00,3285.95,3567.00,348.92,315.98,22.97,0000 0000 0000 0000 000000
2013-07-17 00:43:57,0.00,0.17,0.00,29.56,31.60,33.21,5.87,32.83,1016.13,2039.99,3373.00,3285.95,3566.98,350.01,316.68,22.98,0000 0000 0000 0000 000000
2013-07-17 00:44:57,0.00,0.17,0.00,29.64,31.61,33.28,5.82,32.75,1016.13,2039.99,3373.00,3285.95,3566.99,349.84,316.57,22.98,0000 0000 0000 0000 000000
2013-07-17 00:45:58,0.00,0.17,0.00,29.63,31.62,33.29,5.72,32.79,1016.13,2039.99,3373.00,3285.95,3566.98,349.97,316.69,22.99,0000 0000 0000 0000 000000
2013-07-17 00:46:58,0.00,0.17,0.00,29.61,31.62,33.31,5.93,32.75,1016.13,2039.99,3373.00,3285.97,3566.98,351.09,317.72,23.00,0000 0000 0000 0000 000000
2013-07-17 00:47:58,0.00,0.17,0.00,29.59,31.62,33.44,5.80,32.79,1016.13,2039.99,3373.00,3285.95,3566.99,349.42,316.24,23.00,0000 0000 0000 0000 000000
2013-07-17 00:48:58,0.00,0.17,0.00,29.63,31.62,33.46,5.66,32.42,1016.13,2039.99,3373.00,3285.90,3566.97,349.19,315.99,23.01,0000 0000 0000 0000 000000
2013-07-17 00:49:59,0.01,0.17,0.00,29.62,31.62,33.40,5.86,32.58,1016.13,2039.99,3372.99,3285.83,3566.95,350.44,317.12,23.01,0000 0000 0000 0000 000000
2013-07-17 00:50:59,0.02,0.17,0.00,29.61,31.62,33.32,5.90,32.67,1016.13,2039.98,3372.97,3285.73,3566.92,351.12,316.99,23.02,0000 0000 0000 0000 000000
2013-07-17 00:51:59,0.03,0.18,0.00,29.64,31.63,33.43,5.63,32.38,1016.13,2039.99,3372.94,3285.56,3566.81,348.80,315.54,23.02,0000 0000 0000 0000 000000
2013-07-17 00:52:59,0.06,0.18,0.00,29.67,31.63,33.42,5.93,32.96,1016.13,2039.99,3372.88,3285.47,3566.77,350.12,316.79,23.03,0000 0000 0000 0000 000000
2013-07-17 00:54:00,0.04,0.18,0.00,29.68,31.65,33.41,5.92,32.88,1016.13,2039.99,3372.72,3285.36,3566.68,351.18,317.81,23.04,0000 0000 0000 0000 000000
2013-07-17 00:55:00,0.04,0.18,0.00,29.66,31.65,33.46,5.69,32.79,1016.13,2039.99,3372.45,3285.22,3566.48,350.48,317.12,23.04,0000 0000 0000 0000 000000
2013-07-17 00:56:00,0.08,0.18,0.00,29.67,31.65,33.42,5.64,32.38,1016.13,2039.98,3372.36,3285.15,3566.33,349.05,315.82,23.05,0000 0000 0000 0000 000000
2013-07-17 00:57:01,0.03,0.18,0.00,29.68,31.65,33.34,5.80,32.29,1016.13,2039.99,3372.26,3285.09,3566.22,349.87,316.25,23.05,0000 0000 0000 0000 000000
2013-07-17 00:58:01,0.05,0.18,0.00,29.67,31.65,33.43,5.91,33.00,1016.13,2039.98,3372.11,3285.05,3566.10,350.04,317.12,23.06,0000 0000 0000 0000 000000
2013-07-17 00:59:01,0.03,0.18,0.00,29.71,31.65,33.44,5.70,32.75,1016.14,2039.97,3372.04,3285.02,3566.05,349.17,315.87,23.07,0000 0000 0000 0000 000000
2013-07-17 01:00:01,0.01,0.18,0.00,29.71,31.65,33.48,5.95,32.79,1016.13,2039.98,3372.01,3285.01,3566.02,350.25,317.25,23.07,0000 0000 0000 0000 000000
2013-07-17 01:01:02,0.01,0.18,0.00,29.69,31.66,33.40,5.88,32.58,1016.13,2039.99,3372.00,3285.00,3566.02,350.78,317.37,23.08,0000 0000 0000 0000 000000
2013-07-17 01:02:02,0.01,0.18,0.00,29.72,31.67,33.31,5.97,32.88,1016.13,2039.98,3372.00,3285.00,3566.01,349.40,315.57,23.08,0000 0000 0000 0000 000000
2013-07-17 01:03:02,0.00,0.18,0.00,29.69,31.67,33.26,5.61,32.46,1016.13,2039.98,3372.00,3285.00,3566.00,348.80,315.58,23.09,0000 0000 0000 0000 000000
2013-07-17 01:04:02,0.01,0.18,0.00,29.69,31.67,33.38,5.80,32.79,1016.13,2039.96,3372.00,3285.00,3566.00,349.57,316.27,23.10,0000 0000 0000 0000 000000
2013-07-17 01:05:03,-0.01,0.18,0.00,29.67,31.67,33.42,5.80,32.42,1016.13,2039.95,3372.00,3285.00,3566.00,350.54,317.12,23.10,0000 0000 0000 0000 000000
2013-07-17 01:06:03,-0.02,0.18,0.00,29.66,31.67,33.45,5.86,32.96,1016.13,2039.96,3372.00,3285.00,3566.00,350.47,317.59,23.11,0000 0000 0000 0000 000000
2013-07-17 01:07:03,0.00,0.18,0.00,29.73,31.68,33.45,6.02,32.92,1016.13,2039.96,3372.00,3285.00,3566.00,350.15,317.21,23.11,0000 0000 0000 0000 000000
2013-07-17 01:08:04,-0.01,0.18,0.00,29.79,31.68,33.54,5.65,32.50,1016.13,2039.94,3372.00,3285.00,3566.00,349.34,315.57,23.12,0000 0000 0000 0000 000000
2013-07-17 01:09:04,-0.01,0.18,0.00,29.91,31.70,33.54,6.00,32.96,1016.13,2039.94,3372.00,3284.97,3565.99,350.76,316.63,23.12,0000 0000 0000 0000 000000
2013-07-17 01:10:04,0.01,0.18,0.00,29.89,31.70,33.55,5.82,32.75,1016.13,2039.93,3371.98,3284.96,3565.96,350.17,317.02,23.13,0000 0000 0000 0000 000000
2013-07-17 01:11:05,-0.00,0.18,0.00,29.84,31.70,33.53,5.70,32.63,1016.13,2039.89,3371.98,3284.93,3565.94,350.00,316.49,23.14,0000 0000 0000 0000 000000
2013-07-17 01:12:05,-0.03,0.18,0.00,29.86,31.70,33.53,5.75,32.38,1016.13,2039.88,3371.97,3284.95,3565.93,349.78,316.10,23.14,0000 0000 0000 0000 000000
2013-07-17 01:13:05,0.01,0.18,0.00,29.81,31.70,33.53,5.75,32.50,1016.13,2039.86,3371.91,3284.94,3565.93,350.15,316.72,23.15,0000 0000 0000 0000 000000
2013-07-17 01:14:05,0.00,0.18,0.00,29.79,31.70,33.62,5.82,32.75,1016.14,2039.72,3371.73,3284.79,3565.77,350.18,316.58,23.15,0000 0000 0000 0000 000000
2013-07-17 01:15:06,-0.04,0.18,0.00,29.80,31.72,33.63,5.76,32.71,1016.13,2039.69,3371.55,3284.72,3565.68,348.80,315.75,23.16,0000 0000 0000 0000 000000
2013-07-17 01:16:06,0.02,0.18,0.00,29.84,31.72,33.59,5.88,32.71,1016.14,2039.73,3371.50,3284.66,3565.52,350.75,316.60,23.17,0000 0000 0000 0000 000000
2013-07-17 01:17:06,0.05,0.18,0.00,29.89,31.72,33.65,5.86,32.83,1016.13,2039.74,3371.51,3284.54,3565.44,350.63,317.09,23.17,0000 0000 0000 0000 000000
2013-07-17 01:18:07,0.05,0.18,0.00,29.95,31.72,33.63,5.73,32.96,1016.13,2039.58,3371.28,3284.32,3565.21,349.62,316.39,23.18,0000 0000 0000 0000 000000
2013-07-17 01:19:07,-0.01,0.18,0.00,29.98,31.72,33.58,5.58,32.46,1016.13,2039.49,3371.13,3284.18,3565.09,350.32,316.61,23.18,0000 0000 0000 0000 000000
2013-07-17 01:20:07,-0.01,0.18,0.00,30.03,31.73,33.70,5.99,33.08,1016.14,2039.36,3371.06,3284.09,3565.04,350.52,316.78,23.19,0000 0000 0000 0000 000000
2013-07-17 01:21:07,-0.03,0.18,0.00,30.03,31.74,33.63,5.72,32.88,1016.13,2039.33,3371.02,3284.05,3565.01,350.37,316.63,23.19,0000 0000 0000 0000 000000
2013-07-17 01:22:08,-0.02,0.18,0.00,30.02,31.75,33.68,5.65,32.75,1016.13,2039.25,3371.00,3284.03,3565.00,349.70,316.05,23.20,0000 0000 0000 0000 000000
2013-07-17 01:23:08,-0.04,0.18,0.00,30.08,31.75,33.59,5.78,32.54,1016.14,2039.19,3371.00,3284.01,3565.00,350.12,315.92,23.21,0000 0000 0000 0000 000000
2013-07-17 01:24:08,-0.05,0.18,0.00,30.14,31.75,33.68,5.91,32.83,1016.13,2039.13,3371.00,3284.00,3564.99,350.65,316.77,23.21,0000 0000 0000 0000 000000
2013-07-17 01:25:08,-0.03,0.18,0.00,30.19,31.75,33.69,5.82,32.75,1016.13,2039.09,3370.99,3284.00,3564.98,350.25,316.37,23.22,0000 0000 0000 0000 000000
2013-07-17 01:26:09,-0.02,0.18,0.00,30.24,31.76,33.66,5.86,33.08,1016.14,2039.06,3370.99,3284.00,3564.99,350.30,316.35,23.22,0000 0000 0000 0000 000000
2013-07-17 01:27:09,-0.03,0.18,0.00,30.24,31.77,33.74,5.97,32.96,1016.14,2039.04,3370.98,3284.00,3564.97,350.45,316.49,23.23,0000 0000 0000 0000 000000
2013-07-17 01:28:09,-0.01,0.18,0.00,30.24,31.77,33.62,5.74,32.46,1016.14,2039.02,3370.92,3283.96,3564.87,349.77,316.01,23.24,0000 0000 0000 0000 000000
2013-07-17 01:29:09,0.02,0.18,0.00,30.18,31.77,33.70,5.67,32.71,1016.14,2039.01,3370.70,3283.93,3564.69,349.41,316.13,23.24,0000 0000 0000 0000 000000
2013-07-17 01:30:10,0.05,0.18,0.00,30.19,31.78,33.56,5.77,32.67,1016.14,2039.00,3370.50,3283.83,3564.42,350.17,316.37,23.25,0000 0000 0000 0000 000000
2013-07-17 01:31:10,0.06,0.18,0.00,30.22,31.78,33.71,5.90,32.67,1016.14,2039.00,3370.34,3283.75,3564.31,350.47,316.53,23.25,0000 0000 0000 0000 000000
2013-07-17 01:32:10,0.05,0.18,0.00,30.22,31.80,33.71,5.52,32.21,1016.14,2039.00,3370.20,3283.58,3564.21,348.37,315.08,23.26,0000 0000 0000 0000 000000
2013-07-17 01:33:11,0.07,0.18,0.00,30.19,31.80,33.65,5.68,32.13,1016.14,2039.00,3370.09,3283.34,3564.10,349.38,315.58,23.27,0000 0000 0000 0000 000000
2013-07-17 01:34:11,0.07,0.18,0.00,30.19,31.80,33.73,6.04,32.83,1016.13,2039.00,3370.04,3283.21,3564.03,349.59,315.77,23.27,0000 0000 0000 0000 000000
2013-07-17 01:35:11,0.04,0.18,0.00,30.20,31.80,33.73,5.82,32.21,1016.13,2039.00,3370.02,3283.13,3564.02,349.19,315.79,23.28,0000 0000 0000 0000 000000
2013-07-17 01:36:12,0.02,0.18,0.00,30.21,31.81,33.88,5.80,32.13,1016.14,2039.00,3370.01,3283.08,3564.00,350.27,316.70,23.28,0000 0000 0000 0000 000000
2013-07-17 01:37:12,0.01,0.18,0.00,30.18,31.82,33.84,5.85,32.63,1016.13,2039.01,3370.00,3283.08,3564.00,349.60,316.14,23.29,0000 0000 0000 0000 000000
2013-07-17 01:38:12,0.00,0.18,0.00,30.21,31.82,33.70,6.01,32.92,1016.13,2039.00,3370.00,3283.04,3564.00,350.40,316.21,23.29,0000 0000 0000 0000 000000
2013-07-17 01:39:12,0.00,0.18,0.00,30.24,31.82,33.80,5.97,32.67,1016.13,2039.00,3370.00,3283.01,3564.00,350.95,316.94,23.30,0000 0000 0000 0000 000000
2013-07-17 01:40:13,0.00,0.18,0.00,30.22,31.82,33.78,5.97,32.88,1016.13,2039.00,3370.00,3283.00,3564.00,350.54,316.59,23.31,0000 0000 0000 0000 000000
2013-07-17 01:41:13,0.00,0.18,0.00,30.21,31.83,33.76,5.91,32.67,1016.14,2039.00,3369.98,3283.00,3563.99,349.10,314.94,23.31,0000 0000 0000 0000 000000
2013-07-17 01:42:13,0.01,0.18,0.00,30.24,31.85,33.86,5.84,32.92,1016.13,2039.00,3369.94,3283.00,3563.99,349.21,315.37,23.32,0000 0000 0000 0000 000000
2013-07-17 01:43:13,0.01,0.18,0.00,30.27,31.85,33.87,5.77,33.08,1016.13,2038.99,3369.78,3282.99,3563.88,349.90,315.94,23.32,0000 0000 0000 0000 000000
2013-07-17 01:44:14,0.04,0.18,0.00,30.27,31.85,33.77,5.73,33.08,1016.13,2038.99,3369.42,3282.98,3563.55,349.96,316.02,23.33,0000 0000 0000 0000 000000
2013-07-17 01:45:14,0.07,0.18,0.00,30.27,31.85,33.85,5.82,32.96,1016.13,2038.99,3369.22,3282.96,3563.33,349.46,316.21,23.34,0000 0000 0000 0000 000000
2013-07-17 01:46:14,0.05,0.18,0.00,30.25,31.86,33.83,5.79,32.63,1016.13,2038.98,3369.14,3282.92,3563.17,349.82,315.91,23.34,0000 0000 0000 0000 000000
2013-07-17 01:47:14,0.02,0.18,0.00,30.24,31.87,33.81,5.83,33.08,1016.13,2038.98,3369.11,3282.91,3563.16,350.18,316.24,23.35,0000 0000 0000 0000 000000
2013-07-17 01:48:15,0.01,0.18,0.00,30.25,31.87,33.87,6.02,33.13,1016.14,2038.98,3369.09,3282.88,3563.15,350.66,316.73,23.35,0000 0000 0000 0000 000000
2013-07-17 01:49:15,0.01,0.18,0.00,30.23,31.87,33.80,5.90,33.08,1016.14,2038.99,3369.06,3282.82,3563.12,351.32,317.29,23.36,0000 0000 0000 0000 000000
2013-07-17 01:50:15,0.02,0.18,0.00,30.23,31.88,33.88,5.64,32.46,1016.14,2038.99,3369.04,3282.70,3563.10,349.65,315.78,23.36,0000 0000 0000 0000 000000
2013-07-17 01:51:16,0.02,0.18,0.00,30.23,31.90,33.73,5.93,32.75,1016.15,2038.99,3369.03,3282.55,3563.07,350.70,316.74,23.37,0000 0000 0000 0000 000000
2013-07-17 01:52:16,0.04,0.18,0.00,30.17,31.90,33.86,5.64,32.42,1016.13,2038.99,3369.00,3282.36,3563.02,350.67,317.03,23.38,0000 0000 0000 0000 000000
2013-07-17 01:53:16,0.04,0.18,0.00,30.13,31.90,33.79,5.74,33.04,1016.14,2038.97,3369.01,3282.24,3563.00,350.38,316.54,23.38,0000 0000 0000 0000 000000
2013-07-17 01:54:16,0.01,0.18,0.00,30.13,31.90,33.87,5.67,32.71,1016.13,2038.92,3369.00,3282.13,3563.00,348.93,315.23,23.39,0000 0000 0000 0000 000000
2013-07-17 01:55:17,0.00,0.18,0.00,30.10,31.91,33.81,5.60,31.75,1016.14,2038.91,3369.00,3282.06,3563.00,349.13,316.13,23.39,0000 0000 0000 0000 000000
2013-07-17 01:56:17,0.00,0.18,0.00,30.13,31.92,33.77,5.83,32.88,1016.14,2038.90,3369.00,3282.03,3563.00,350.10,316.50,23.40,0000 0000 0000 0000 000000
2013-07-17 01:57:17,0.00,0.18,0.00,30.16,31.92,33.93,5.78,32.58,1016.14,2038.92,3369.00,3282.01,3563.00,350.65,316.76,23.41,0000 0000 0000 0000 000000
2013-07-17 01:58:17,0.01,0.18,0.00,30.13,31.92,33.90,5.77,32.71,1016.14,2038.91,3368.99,3282.01,3563.00,350.18,316.36,23.41,0000 0000 0000 0000 000000
2013-07-17 01:59:18,0.00,0.18,0.00,30.16,31.93,33.84,5.66,32.21,1016.15,2038.89,3368.99,3282.00,3563.00,349.23,315.48,23.42,0000 0000 0000 0000 000000
2013-07-17 02:00:18,-0.00,0.18,0.00,30.15,31.94,33.90,5.67,31.83,1016.16,2038.86,3368.93,3282.00,3562.99,349.89,315.58,23.42,0000 0000 0000 0000 000000
2013-07-17 02:01:18,-0.01,0.18,0.00,30.14,31.95,33.84,5.58,32.38,1016.16,2038.83,3368.83,3282.00,3562.93,348.98,315.28,23.43,0000 0000 0000 0000 000000
2013-07-17 02:02:18,-0.04,0.18,0.00,30.19,31.95,33.93,6.08,33.29,1016.14,2038.71,3368.67,3282.00,3562.81,350.85,317.14,23.44,0000 0000 0000 0000 000000
2013-07-17 02:03:19,-0.02,0.18,0.00,30.25,31.95,33.84,5.68,32.54,1016.13,2038.66,3368.53,3282.00,3562.73,349.33,315.79,23.44,0000 0000 0000 0000 000000
2013-07-17 02:04:19,-0.02,0.18,0.00,30.29,31.96,34.00,5.67,32.04,1016.13,2038.52,3368.34,3281.99,3562.44,349.70,315.47,23.45,0000 0000 0000 0000 000000
2013-07-17 02:05:19,-0.04,0.18,0.00,30.30,31.97,33.93,5.97,33.08,1016.13,2038.50,3368.27,3281.99,3562.37,350.93,316.45,23.45,0000 0000 0000 0000 000000
2013-07-17 02:06:19,-0.02,0.18,0.00,30.30,31.97,33.88,5.72,32.42,1016.13,2038.45,3368.16,3281.97,3562.23,350.05,316.15,23.46,0000 0000 0000 0000 000000
2013-07-17 02:07:20,0.00,0.18,0.00,30.28,31.97,33.90,5.53,32.29,1016.14,2038.43,3368.10,3281.97,3562.20,348.87,315.02,23.46,0000 0000 0000 0000 000000
2013-07-17 02:08:20,0.01,0.18,0.00,30.24,31.98,33.94,5.77,32.17,1016.14,2038.43,3368.07,3281.96,3562.18,349.18,315.22,23.47,0000 0000 0000 0000 000000
2013-07-17 02:09:20,0.00,0.18,0.00,30.23,32.00,33.98,5.89,32.92,1016.15,2038.36,3368.03,3281.92,3562.11,350.76,316.19,23.48,0000 0000 0000 0000 000000
2013-07-17 02:10:21,-0.01,0.18,0.00,30.22,32.00,33.95,5.71,32.46,1016.14,2038.25,3368.02,3281.69,3562.04,349.45,316.01,23.48,0000 0000 0000 0000 000000
2013-07-17 02:11:21,-0.04,0.18,0.00,30.22,32.00,33.98,5.69,32.54,1016.13,2038.17,3368.00,3281.43,3562.01,350.72,316.75,23.49,0000 0000 0000 0000 000000
2013-07-17 02:12:21,0.04,0.18,0.00,30.20,32.00,33.89,5.77,32.71,1016.14,2038.16,3368.00,3281.22,3562.00,349.57,315.74,23.49,0000 0000 0000 0000 000000
2013-07-17 02:13:21,-0.01,0.18,0.00,30.19,32.02,33.96,5.92,33.08,1016.13,2038.08,3368.00,3281.12,3562.00,350.60,316.33,23.50,0000 0000 0000 0000 000000
2013-07-17 02:14:21,-0.02,0.18,0.00,30.19,32.02,33.87,5.95,32.88,1016.14,2038.04,3368.00,3281.07,3561.98,350.79,317.46,23.51,0000 0000 0000 0000 000000
2013-07-17 02:15:22,-0.00,0.18,0.00,30.20,32.02,33.88,5.82,32.58,1016.15,2038.03,3367.95,3281.04,3561.99,349.39,315.93,23.51,0000 0000 0000 0000 000000
2013-07-17 02:16:22,0.00,0.18,0.00,30.22,32.03,33.91,5.86,32.33,1016.15,2038.03,3367.94,3281.02,3561.98,349.52,316.01,23.52,0000 0000 0000 0000 000000
2013-07-17 02:17:22,0.01,0.18,0.00,30.25,32.03,33.93,5.68,32.58,1016.16,2038.01,3367.88,3281.00,3561.89,349.85,316.21,23.52,0000 0000 0000 0000 000000
2013-07-17 02:18:22,0.02,0.18,0.00,30.27,32.05,33.87,5.71,32.50,1016.13,2038.00,3367.77,3281.00,3561.81,348.49,314.69,23.53,0000 0000 0000 0000 000000
2013-07-17 02:19:23,0.01,0.18,0.00,30.23,32.05,33.79,5.92,32.71,1016.13,2038.00,3367.64,3281.00,3561.58,349.80,315.91,23.53,0000 0000 0000 0000 000000
2013-07-17 02:20:23,0.04,0.18,0.00,30.28,32.05,33.90,5.83,32.67,1016.15,2038.00,3367.40,3281.00,3561.33,350.47,316.47,23.54,0000 0000 0000 0000 000000
2013-07-17 02:21:23,0.06,0.18,0.00,30.34,32.06,33.91,5.93,32.71,1016.14,2038.00,3367.23,3281.00,3561.16,351.02,316.91,23.55,0000 0000 0000 0000 000000
2013-07-17 02:22:23,0.04,0.18,0.00,30.33,32.07,33.96,5.83,32.38,1016.15,2038.00,3367.13,3281.00,3561.06,350.47,316.42,23.55,0000 0000 0000 0000 000000
2013-07-17 02:23:24,0.02,0.18,0.00,30.30,32.07,33.92,5.72,32.46,1016.13,2038.00,3367.05,3280.99,3561.03,349.45,315.88,23.56,0000 0000 0000 0000 000000
2013-07-17 02:24:24,0.01,0.18,0.00,30.31,32.07,33.95,5.78,32.50,1016.13,2038.00,3367.02,3280.95,3561.01,350.43,315.96,23.56,0000 0000 0000 0000 000000
2013-07-17 02:25:24,0.01,0.18,0.00,30.30,32.08,33.91,5.80,32.75,1016.15,2038.00,3367.00,3280.92,3561.00,349.65,315.24,23.57,0000 0000 0000 0000 000000
2013-07-17 02:26:25,0.00,0.18,0.00,30.29,32.09,34.05,5.91,32.54,1016.16,2038.00,3367.01,3280.82,3561.00,350.59,316.18,23.58,0000 0000 0000 0000 000000
2013-07-17 02:27:25,0.03,0.18,0.00,30.29,32.10,33.99,5.81,32.33,1016.15,2038.00,3366.76,3280.39,3560.60,349.06,315.19,23.58,0000 0000 0000 0000 000000
2013-07-17 02:28:25,0.16,0.18,0.00,30.29,32.10,33.97,5.73,32.04,1016.15,2038.00,3366.43,3280.13,3560.22,349.29,315.39,23.59,0000 0000 0000 0000 000000
2013-07-17 02:29:25,0.14,0.18,0.00,30.28,32.10,34.03,5.89,32.25,1016.14,2038.00,3366.24,3280.02,3560.08,350.03,316.07,23.59,0000 0000 0000 0000 000000
2013-07-17 02:30:25,0.05,0.18,0.00,30.28,32.12,34.02,5.82,32.46,1016.18,2038.00,3366.13,3279.99,3560.03,349.29,315.42,23.60,0000 0000 0000 0000 000000
2013-07-17 02:31:26,0.02,0.18,0.00,30.28,32.12,34.05,5.80,32.46,1016.20,2037.99,3366.06,3279.92,3560.01,349.73,315.61,23.61,0000 0000 0000 0000 000000
2013-07-17 02:32:26,0.02,0.18,0.00,30.29,32.12,33.98,6.04,32.50,1016.15,2037.99,3366.02,3279.77,3560.00,350.82,316.79,23.61,0000 0000 0000 0000 000000
2013-07-17 02:33:26,0.03,0.18,0.00,30.29,32.12,34.03,5.69,32.25,1016.16,2037.99,3366.00,3279.71,3559.99,349.64,315.73,23.62,0000 0000 0000 0000 000000
2013-07-17 02:34:26,0.01,0.18,0.00,30.36,32.13,34.05,5.86,33.33,1016.15,2037.98,3366.00,3279.71,3559.99,350.31,316.77,23.62,0000 0000 0000 0000 000000
2013-07-17 02:35:27,0.01,0.18,0.00,30.43,32.15,34.05,5.93,32.17,1016.15,2037.99,3366.00,3279.49,3559.99,349.55,315.49,23.63,0000 0000 0000 0000 000000
2013-07-17 02:36:27,0.04,0.18,0.00,30.45,32.15,34.05,5.89,32.58,1016.15,2037.97,3366.00,3279.21,3559.92,350.10,315.76,23.63,0000 0000 0000 0000 000000